SL-16 DEB, 22620

Orbit data source: Space-Track

SL-16 DEB, 22620 is space debris in LEO originally from a launch on Fri, 26 Mar 1993 UTC launched from the Tyuratam Missile And Space Complex (TTMTR). Debris objects in space refer to the collection of defunct objects orbiting the Earth. Examples of debris include non-operational satellites, rocket bodies, and fragments generated from explosions, collisions, or faulty payload assembly.

Loading next visibility...
Identifier
22620, 1993-016AE
Orbit
LEO
Last TLE update
8 hours ago
Origin
Manufacturer
Unknown
Mission
Spacecraft
Bus & Motor
Unknown
Mass
Unknown
Launch date (UTC)
1993-03-26 (32 years ago)
Launch vehicle
Unknown
Launch site
Tyuratam Missile And Space Complex (TTMTR)
Object type
Payload
Rocket body
Debris
Shape & HBR
Unknown
Radar Cross Section
Medium (>0.1 m² and <1 m²)

Expand to show TLE details & history

TLE from 8 hours ago
0 SL-16 DEB
1 22620U 93016AE  25186.43123491  .00000015  00000-0  49629-4 0  9990
2 22620  71.0048 167.7031 0134665 351.2068 174.3020 13.84089126629555
Epoch: 2025-07-05T10:20Z
TLE epoch observation values (Epoch: 2025-07-05T10:20:58.696Z)
Latitude
13.52013°
Longitude
-95.93427°
Altitude
1,049.259 km
Speed
7.279 km/s
True Right ascension
22h 51m 55s
True Declination
13° 26' 43"
Sunlit
Object was in daylight at epoch
Visualization orbit readout
Latitude
-27.28116°
Longitude
77.9749°
Altitude
865.858 km
Speed
7.466 km/s
Apparent Right ascension
13h 27m 25s
Apparent Declination
-49° 11' 43"
Sunlit
Object is in daylight
Visualization observer readout
Local Sidereal Time
06:00:47
Azimuth
125.034° SE
Elevation
-42.12°
Doppler factor
1
Orbital elements
Apogee altitude
1,046.022 km
Perigee altitude
848.724 km
Semi-major axis
7,325.51 km
Eccentricity
0.01347
Inclination
71.0048°
RAAN
167.7031°
Arg. of periapsis
351.2068°
True anomaly
Unknown
Mean anomaly
174.302°
Eccentric anomaly
Unknown
Mean motion
3.46168 °/min
Orbital period
104 mins
BSTAR
0.000049629
Loading maneuver chart data...
Loading SW <> Apogee altitude chart data...
Loading historical data...
Loading historical data...
Loading historical data...
Loading historical data...
Loading historical data...
Loading historical data...
Loading historical data...

SL-16 DEB Visibility forecast

Observer location: undefined°, undefined°

Span
Click to sort rows by Start time (UTC) header in descending order
Start Az.
Max El. time (UTC)
Max El. Az.
Max El.
End time (UTC)
End Az.
10 mins2025-07-05 23:32:19.073Z172.172° S2025-07-05 23:37:19.073Z96.594° ESE33.997°2025-07-05 23:42:19.073Z37.094° NE
8 mins2025-07-06 01:20:19.073Z258.578° W2025-07-06 01:23:19.073Z300.589° NW25.4°2025-07-06 01:28:19.073Z1.399° NNE
9 mins2025-07-06 08:39:19.073Z5.638° NNE2025-07-06 08:43:19.073Z53.166° ENE25.457°2025-07-06 08:48:19.073Z108.939° ESE
11 mins2025-07-06 10:25:19.073Z323.207° NNW2025-07-06 10:30:19.073Z247.977° W38.716°2025-07-06 10:36:19.073Z179.01° S
|